Weather in Bolshoye Kureynoye

Russia / Kurgan Oblast     54°54′59″N   66°56′53″E
В апреле 2022 года жителям России запретили посещать сайт meteo.paraplan.net по решению Генеральной прокуратуры. Аудитория сайта уменьшилась в 10 раз. Владельцы сайта не видят смысла в поддержке погодного сервера в таких условиях. Сайт будет закрыт в октябре.
temp.,
°C
wind,
m/s
gust,
m/s
humid.,
%
clouds,
%
prec.,
mm/h
press.,
hPa
HPBL,
m
30 september, fri
fri3023:00−3ne22750 0.0 103217
02:00−3ne11770 0.0 103310
05:00−3nne11772 0.0 103410
08:00−2nne22725 0.0 1036162
11:00+2ne225154 0.0 10361153
14:00+3ne214458 0.0 10361356
17:00+3nne11455 0.0 1036939
20:000ene22605 0.0 103813
1 october, sat
sat123:00−1e22662 0.0 103934
02:00−2se22680 0.0 103922
05:00−2sse22690 0.0 104016
08:00−1sse23620 0.0 1040127
11:00+4sse33455 0.0 1040854
14:00+6s33390 0.0 10381234
17:00+5sse22450 0.0 103765
20:00+1se34565 0.0 103744
2 october, sun
sun223:000sse36625 0.0 103798
02:00−1sse37675 0.0 1037127
05:00−1sse356512 0.0 103674
08:00+1sse365449 0.0 1036143
11:00+6s45365 0.0 1036594
14:00+8s55310 0.0 10341164
17:00+7sse35390 0.0 1033143
20:00+3sse47500 0.0 103492
3 october, mon
mon323:00+2sse410590 0.0 1033168
02:00+1sse47610 0.0 1033109
05:000s35570 0.0 103367
08:00+1sse38521 0.0 1033173
11:00+7s57385 0.0 1032554
14:00+10s55325 0.0 1032982
17:00+9sse3540100 0.0 1031117
20:00+5sse4649100 0.0 103282
4 october, tue
tue423:00+3s475599 0.0 1033106
02:00+3s3556100 0.0 103376
05:00+3ssw3553100 0.0 103380
08:00+3ssw365080 0.0 1034132
11:00+9sw463450 0.0 1035418
14:00+12sw4529100 0.0 1034663
17:00+11sw343612 0.0 103470
20:00+8sw33405 0.0 103642